{"data":{"norad_id":63023,"epoch":"2026-05-24T17:53:23.161344Z","epoch_age_seconds":104006,"freshness":"FRESH","line1":"1 63023U 25032U   26144.74540696  .00023330  00000+0  85392-3 0  9994","line2":"2 63023  42.9993 266.3693 0001178 288.9983  71.0741 15.27606940 72257","mean_motion":15.2760694,"eccentricity":0.0001178,"inclination_deg":42.9993,"raan_deg":266.3693,"arg_perigee_deg":288.9983,"mean_anomaly_deg":71.0741,"bstar":0.00085392,"rev_number":7225,"period_min":94.265086279328,"perigee_km":482.160190954,"apogee_km":483.77666739311,"semimajor_km":6861.1054291736,"source":"CELESTRAK","updated_at":"2026-05-25T13:38:19.863348Z"}}